Simultaneous Nadir Overpasses (SNOs) Predictions

Prediction of SNOs between GOES-14 and AQUA Satellite Orbit:

Table of predicted SNOs for the next 14.0 days since TLE Epoch: 4/18/2025
Index Date Time (GOES-14) GOES-14 Lat,Lon AQUA Lat,Lon Distance(km) Time Diff (sec)
1 04/19/2025 09:50:54 0.21,-108.33 0.17,-108.08 27.87 80
2 04/21/2025 21:50:16 -0.20,-108.34 -0.12,-107.86 53.86 80
3 04/22/2025 10:06:51 0.15,-108.33 1.05,-112.53 476.80 80
4 04/24/2025 09:49:29 0.18,-108.34 -0.00,-107.62 82.31 80
5 04/24/2025 22:06:11 -0.13,-108.35 -1.01,-112.30 450.13 80
6 04/26/2025 21:48:48 -0.15,-108.35 0.05,-107.39 109.23 80
7 04/27/2025 10:05:22 0.11,-108.34 0.91,-112.04 421.20 80
8 04/29/2025 09:47:58 0.13,-108.34 -0.16,-107.13 138.03 80
9 04/29/2025 22:04:39 -0.08,-108.35 -0.82,-111.82 394.50 80
10 05/01/2025 21:47:13 -0.10,-108.34 0.19,-106.89 165.08 80
11 05/02/2025 10:03:47 0.05,-108.34 0.73,-111.55 365.19 80
